Regional Weather Roundup
Issued by NWS

Home | Current Version | Previous Version | Graphics & Text | Print | Product List | Glossary On
Versions: 1 2 3 4 5 6 7 8 9 10 11 12 13 14 15 16 17 18 19 20 21 22 23 24 25 26 27 28 29 30 31 32 33 34 35 36 37 38 39 40 41 42 43 44 45 46 47 48 49 50
000
ASUS43 KMKX 240621
RWRWI

WISCONSIN REGIONAL WEATHER ROUNDUP
NATIONAL WEATHER SERVICE MILWAUKEE/SULLIVAN WI
100 AM CDT SUN MAY 24 2015

NOTE: "FAIR" INDICATES FEW OR NO CLOUDS BELOW 12,000 FEET WITH NO
SIGNIFICANT WEATHER AND/OR OBSTRUCTIONS TO VISIBILITY.

WIZ001-002-006>008-014>016-023>028-240700-
NORTHWEST WISCONSIN

CITY           SKY/WX    TMP DP  RH WIND       PRES   REMARKS
SUPERIOR ARPT  FAIR      51  44  75 CALM      30.13F
6HR MIN TEMP:  48; 6HR MAX TEMP:  71;

ASHLAND        PTCLDY    47  43  86 S3        30.16S
6HR MIN TEMP:  46; 6HR MAX TEMP:  73;

HAYWARD        CLOUDY    52  46  80 N5        30.17F
6HR MIN TEMP:  51; 6HR MAX TEMP:  69;

SIREN          CLOUDY    58  51  79 CALM      30.15F
6HR MIN TEMP:  57; 6HR MAX TEMP:  68;

CUMBERLAND     CLOUDY    55  50  82 CALM      30.17S
RICE LAKE      LGT RAIN  58  52  79 CALM      30.18S
6HR MIN TEMP:  57; 6HR MAX TEMP:  64;

CHETEK         CLOUDY    58  53  84 E5        30.16F
6HR MIN TEMP:  58; 6HR MAX TEMP:  66;

LADYSMITH      CLOUDY    57  51  79 CALM      30.19S
6HR MIN TEMP:  57; 6HR MAX TEMP:  66;

EAU CLAIRE     CLOUDY    58  46  64 NE5       30.14F
6HR MIN TEMP:  57; 6HR MAX TEMP:  73;

MENOMONIE      CLOUDY    59  47  63 CALM      30.14F
6HR MIN TEMP:  59; 6HR MAX TEMP:  72;

NEW RICHMOND   CLOUDY    60  47  62 NE5       30.14F
6HR MIN TEMP:  59; 6HR MAX TEMP:  65;

OSCEOLA        CLOUDY    61  49  65 NE6       30.16F
6HR MIN TEMP:  59; 6HR MAX TEMP:  64;

$$

WIZ003>005-009-010-017-018-240700-
NORTH CENTRAL WISCONSIN

CITY           SKY/WX    TMP DP  RH WIND       PRES   REMARKS
MANITOWISH WTR MOCLDY    51  47  86 CALM      30.19S
6HR MIN TEMP:  50; 6HR MAX TEMP:  70;

ARBOR VITAE    CLOUDY    57  46  66 CALM      30.19S
6HR MIN TEMP:  57; 6HR MAX TEMP:  72;

WOODRUFF       CLOUDY    57  46  66 CALM      30.19S
6HR MIN TEMP:  57; 6HR MAX TEMP:  72;

RHINELANDER    CLOUDY    57  46  66 CALM      30.20S
6HR MIN TEMP:  56; 6HR MAX TEMP:  71;

EAGLE RIVER    CLOUDY    56  41  57 CALM      30.18S
6HR MIN TEMP:  55; 6HR MAX TEMP:  71;

LAND O LAKES   CLOUDY    54  44  69 CALM      30.20S
6HR MIN TEMP:  54; 6HR MAX TEMP:  74;

PHILLIPS       CLOUDY    56  50  81 CALM      30.18F
6HR MIN TEMP:  55; 6HR MAX TEMP:  67;

TOMAHAWK       CLOUDY    52  46  80 CALM      30.20R
6HR MIN TEMP:  52; 6HR MAX TEMP:  68;

MEDFORD        CLOUDY    56  52  87 CALM      30.17F
6HR MIN TEMP:  55; 6HR MAX TEMP:  69;

MERRILL        CLOUDY    55  51  86 CALM      30.19F
$$

WIZ029-030-035-036-043>047-240700-
CENTRAL WISCONSIN

CITY           SKY/WX    TMP DP  RH WIND       PRES   REMARKS
WAUSAU         LGT RAIN  60  49  66 N3        30.17S
6HR MIN TEMP:  59; 6HR MAX TEMP:  72; 6HR PCP: TRACE;

MOSINEE        CLOUDY    61  43  51 NE3       30.18F
MARSHFIELD     CLOUDY    62  45  53 E3        30.17F
6HR MIN TEMP:  62; 6HR MAX TEMP:  72;

STEVENS POINT  CLOUDY    56  49  77 CALM      30.18S
6HR MIN TEMP:  55; 6HR MAX TEMP:  72;

WAUPACA        MOCLDY    59  49  69 CALM      30.17F
6HR MIN TEMP:  59; 6HR MAX TEMP:  76;

WAUTOMA        MOCLDY    57  51  80 CALM      30.17F
6HR MIN TEMP:  56; 6HR MAX TEMP:  77;

WISC RAPIDS    CLOUDY    60  45  57 CALM      30.17F
6HR MIN TEMP:  58; 6HR MAX TEMP:  75; 6HR PCP: TRACE;

CAMP DOUGLAS   PTCLDY    51  51 100 E5        30.14F
6HR MIN TEMP:  51; 6HR MAX TEMP:  74;

$$

WIZ011>013-019>022-031-037>040-048>050-240700-
NORTHEAST WISCONSIN

CITY           SKY/WX    TMP DP  RH WIND       PRES   REMARKS
ANTIGO         CLOUDY    57  50  76 CALM      30.20S
SHAWANO        MOCLDY    55  46  72 CALM      30.18S
6HR MIN TEMP:  55; 6HR MAX TEMP:  77;

OCONTO         MOCLDY    55  48  78 CALM      30.17S
6HR MIN TEMP:  54; 6HR MAX TEMP:  74;

STURGEON BAY   CLOUDY    61  39  44 S6        30.20S
6HR MIN TEMP:  59; 6HR MAX TEMP:  68;

GREEN BAY      PTCLDY    62  43  49 S6        30.18S
6HR MIN TEMP:  62; 6HR MAX TEMP:  77;

MANITOWOC      PTCLDY    51  43  74 CALM      30.19F
6HR MIN TEMP:  50; 6HR MAX TEMP:  67;

APPLETON       PTCLDY    59  45  58 S6        30.18F
CLINTONVILLE   PTCLDY    54  46  76 CALM      30.18S
OSHKOSH        PTCLDY    57  44  62 S7        30.17F
6HR MIN TEMP:  55; 6HR MAX TEMP:  76;

$$

WIZ032>034-041-042-053>061-240700-
SOUTHWEST WISCONSIN

CITY           SKY/WX    TMP DP  RH WIND       PRES   REMARKS
LA CROSSE      MOCLDY    61  50  67 CALM      30.12F
6HR MIN TEMP:  60; 6HR MAX TEMP:  77;

SPARTA         PTCLDY    51  47  87 CALM      30.15F
6HR MIN TEMP:  51; 6HR MAX TEMP:  74;

VIROQUA        MOCLDY    62  44  52 SE7       30.15F
6HR MIN TEMP:  62; 6HR MAX TEMP:  74;

BOSCOBEL       PTCLDY    52  49  89 CALM      30.15F
6HR MIN TEMP:  52; 6HR MAX TEMP:  78;

PRAIRIE DU CHI CLOUDY    58  48  71 E3        30.13F
6HR MIN TEMP:  57; 6HR MAX TEMP:  76;

PLATTEVILLE    CLOUDY    63  48  59 E6        30.15S
6HR MIN TEMP:  62; 6HR MAX TEMP:  76;

$$

WIZ056-057-062-063-064-067-068-240700-
SOUTH CENTRAL WISCONSIN

CITY           SKY/WX    TMP DP  RH WIND       PRES   REMARKS
REEDSBURG      CLEAR     53  48  83 CALM      30.16S
6HR MIN TEMP:  53; 6HR MAX TEMP:  75;

BARABOO/DELLS  CLEAR     56  44  64 CALM      30.16F
6HR MIN TEMP:  55; 6HR MAX TEMP:  74;

LONE ROCK      PTCLDY    55  48  77 CALM      30.15F
6HR MIN TEMP:  54; 6HR MAX TEMP:  75;

MINERAL POINT  PTCLDY    63  43  48 SE5       30.15F
MADISON        CLEAR     55  47  74 CALM      30.16F
6HR MIN TEMP:  54; 6HR MAX TEMP:  75;

MIDDLETON      CLEAR     55  46  73 CALM      30.17F
6HR MIN TEMP:  55; 6HR MAX TEMP:  76;

WATERTOWN      CLEAR     56  46  67 CALM      30.17S
6HR MIN TEMP:  56; 6HR MAX TEMP:  75;

MONROE         PTCLDY    64  46  52 S6        30.16F
JANESVILLE     CLEAR     59  45  58 E3        30.16F
$$

WIZ051-052-058>065-066-070>072-240700-
SOUTHEAST WISCONSIN

CITY           SKY/WX    TMP DP  RH WIND       PRES   REMARKS
MILWAUKEE      PTCLDY    56  39  53 CALM      30.19F
6HR MIN TEMP:  56; 6HR MAX TEMP:  66;

WAUKESHA       CLEAR     55  39  54 CALM      30.20S
MILWAUKEE/TIMM CLEAR     54  41  62 CALM      30.20S
RACINE         CLEAR     57  38  48 S5        30.20F
6HR MIN TEMP:  56; 6HR MAX TEMP:  64;

BURLINGTON     CLEAR     50  45  83 CALM      30.18F
6HR MIN TEMP:  50; 6HR MAX TEMP:  73;

KENOSHA        CLEAR     54  41  61 CALM      30.19F
6HR MIN TEMP:  53; 6HR MAX TEMP:  69;

FOND DU LAC    CLEAR     59  42  53 S5        30.18F
6HR MIN TEMP:  57; 6HR MAX TEMP:  77;

SHEBOYGAN      CLEAR     51  40  65 CALM      30.19F
6HR MIN TEMP:  50; 6HR MAX TEMP:  67;

WEST BEND      CLEAR     50  43  76 CALM      30.19F
JUNEAU         CLEAR     56  45  65 E6        30.19F
6HR MIN TEMP:  56; 6HR MAX TEMP:  75;

$$

LSZ147-162-240700-
LAKE SUPERIOR

STATION/POSITION TIME  TEMP    WIND        PRES    WAVE
                       AIR SEA DIR/SP/G            HT/PER
                 (UTC) (F)     (DEG/KT/KT) (MB)    (FT/S)
W MID LAKE BUOY  0550   45 36  220/ 12/ 14   N/A     1
DEVILS ISLAND    0600   62     240/ 16/ 18   N/A
PORT WING        0540   56     150/  2/  5   N/A
SAXON HARBOR     0540   54     190/  4/  7   N/A
$$

LMZ867-665-643>646-240700-
LAKE MICHIGAN

STATION/POSITION TIME  TEMP    WIND        PRES    WAVE
                       AIR SEA DIR/SP/G            HT/PER



USA.gov is the U.S. government's official web portal to all federal, state and local government web resources and services.